This is the latest recevied weather packets stored in our database for station/object IT9CNT. If no packets are shown the sender has not sent any weather packets the latest 1 day(s).
| Time | Temp. | Humidity | Pressure | Rain* | Wind** | Luminosity | Snow |
|---|---|---|---|---|---|---|---|
| 1777985883 | 20° C | 65% | 1013.6 hPa | 0 mm | 3.13 m/s, 149° | - | - |
| 1777985823 | 20.56° C | 67% | 1013.4 hPa | 0 mm | 2.68 m/s, 147° | - | - |
| 1777985763 | 20.56° C | 66% | 1013.5 hPa | 0 mm | 2.68 m/s, 153° | - | - |
| 1777985703 | 20.56° C | 66% | 1013.5 hPa | 0 mm | 2.68 m/s, 157° | - | - |
| 1777985583 | 20° C | 68% | 1013.7 hPa | 0 mm | 2.68 m/s, 169° | - | - |
| 1777985523 | 19.44° C | 67% | 1013.8 hPa | 0 mm | 2.68 m/s, 168° | - | - |
| 1777985463 | 19.44° C | 67% | 1013.8 hPa | 0 mm | 2.68 m/s, 162° | - | - |
| 1777985403 | 19.44° C | 66% | 1013.8 hPa | 0 mm | 2.68 m/s, 160° | - | - |
| 1777985343 | 20.56° C | 68% | 1013.4 hPa | 0 mm | 2.68 m/s, 161° | - | - |
| 1777985283 | 20° C | 69% | 1013.8 hPa | 0 mm | 2.68 m/s, 163° | - | - |
| 1777985223 | 20° C | 69% | 1013.6 hPa | 0 mm | 2.68 m/s, 154° | - | - |
| 1777985163 | 20° C | 68% | 1013.8 hPa | 0 mm | 3.13 m/s, 156° | - | - |
| 1777985103 | 20° C | 70% | 1013.8 hPa | 0 mm | 3.13 m/s, 154° | - | - |
| 1777985043 | 20° C | 69% | 1013.9 hPa | 0 mm | 3.13 m/s, 148° | - | - |
| 1777984983 | 20° C | 70% | 1013.8 hPa | 0 mm | 3.13 m/s, 138° | - | - |
| 1777984923 | 20° C | 70% | 1013.9 hPa | 0 mm | 3.58 m/s, 133° | - | - |
| 1777984863 | 20.56° C | 71% | 1013.8 hPa | 0 mm | 3.58 m/s, 137° | - | - |
| 1777984803 | 20.56° C | 71% | 1013.8 hPa | 0 mm | 3.58 m/s, 134° | - | - |
| 1777984743 | 20.56° C | 72% | 1013.9 hPa | 0 mm | 3.58 m/s, 134° | - | - |
| 1777984683 | 20° C | 72% | 1013.8 hPa | 0 mm | 3.58 m/s, 131° | - | - |
| 1777984623 | 19.44° C | 73% | 1013.8 hPa | 0 mm | 3.58 m/s, 138° | - | - |
| 1777984563 | 19.44° C | 73% | 1013.8 hPa | 0 mm | 4.02 m/s, 140° | - | - |
| 1777984503 | 19.44° C | 76% | 1013.9 hPa | 0 mm | 3.58 m/s, 139° | - | - |
| 1777984443 | 19.44° C | 76% | 1013.7 hPa | 0 mm | 3.58 m/s, 142° | - | - |
| 1777984383 | 19.44° C | 75% | 1013.8 hPa | 0 mm | 3.58 m/s, 149° | - | - |
* Rain latest hour (hover to see other rain measurements)
** Current wind speed in m/s (hover to see current wind gust speed)